Weather in Mozhayka

Russia / Republic of Buryatia     52°24′42″N   110°47′17″E
temp.,
°C
wind,
m/s
gust,
m/s
humid.,
%
clouds,
%
prec.,
mm/h
press.,
hPa
HPBL,
m
22 january, sat
sat2223:00−23n1110069 0.0 103910
02:00−24n1110084 0.0 104010
05:00−25n1110077 0.0 10409
08:00−24nne11100100 0.0 104011
11:00−18ese1191100 0.0 103893
14:00−14se118387 0.0 1035188
17:00−19nne119957 0.0 10369
20:00−20nne229995 0.0 103814
23 january, sun
sun2323:00−19ne219791 0.0 103716
02:00−18ne1196100 0.0 103620
05:00−18ne1196100 0.0 103529
08:00−17ne1294100 0.0 103469
11:00−14ne2585100 0.1 1033315
14:00−12ene3589100 0.4 1032428
17:00−13ene2595100 0.4 1031158
20:00−14nne2695100 0.7 1032183
24 january, mon
mon2423:00−15nne2496100 0.3 1032129
02:00−15nne1197100 0.6 103231
05:00−16nne1198100 0.3 103212
08:00−17n1198100 0.4 103310
11:00−14ssw1190100 0.2 1032190
14:00−12sw2285100 0.3 1030352
17:00−14ssw1199100 0.1 103110
20:00−17wnw119991 0.1 103211
25 january, tue
tue2523:00−18nw119898 0.0 103317
02:00−20nnw119776 0.0 103419
05:00−23nnw229745 0.0 103518
08:00−26nnw219830 0.0 103714
11:00−19wsw128731 0.0 1035154
14:00−14sw247662 0.0 1032519
17:00−20sw1110048 0.0 10359
20:00−25nnw229865 0.0 103811
26 january, wed
wed2623:00−26nnw219865 0.0 103915
02:00−27nnw119859 0.0 104012
05:00−28nnw119965 0.0 104111
08:00−29nnw119962 0.0 104310
11:00−22ssw119063 0.0 1040129
14:00−18ssw228347 0.0 1037313
17:00−24wsw0110052 0.0 10409
20:00−27nnw2110042 0.0 104210